Hereford, TX

6:12 AM CDT on October 22, 2017 (GMT -0500)
Hereford Municipal

Weather History for KHRX - March, 2013

Change the Weather History Date:

Wednesday, March 20, 2013

  Actual Average (KCVN) Record (KCVN)
Temperature  
Mean Temperature 43 °F -  
Max Temperature 61 °F 64 °F 87 °F (2017)
Min Temperature 25 °F 33 °F 8 °F (1965)
Degree Days  
Heating Degree Days 22    
Moisture  
Dew Point 20 °F    
Average Humidity 42    
Maximum Humidity 75    
Minimum Humidity 17    
Precipitation  
Precipitation 0.00 in - - ()
Sea Level Pressure  
Sea Level Pressure 30.17 in    
Wind  
Wind Speed 8 mph (SSW)    
Max Wind Speed 24 mph    
Max Gust Speed 33 mph    
Visibility 10 miles    
Events      
Averages and records for this station are not official NWS values.
T = Trace of Precipitation, MM = Missing Value Source: NWS Daily Summary

Daily Weather History Graph

Daily Weather History Graph

Search for Another Location

Airport or City:

Trip Planner

Search our weather history database for the weather conditions in past years. The results will help you decide how hot, cold, wet, or windy it might be!

Date:

Astronomy

Mar. 20, 2013 Rise Set
Actual Time 7:52 AM CDT 8:01 PM CDT
Civil Twilight 7:27 AM CDT 8:26 PM CDT
Nautical Twilight 6:57 AM CDT 8:55 PM CDT
Astronomical Twilight 6:28 AM CDT 9:25 PM CDT
Moon 1:50 PM CDT (3/20) 3:21 AM CDT (3/20)
Length of Visible Light 12h 59m
Length of Day
12h 08m
First Quarter, 59% of the Moon is Illuminated
Mar 20
First Quarter
Mar 27
Full
Apr 2
Last Quarter
Apr 10
New
Apr 18
First Quarter

Hourly Weather History & Observations

Time (CDT) Temp. Windchill Dew Point Humidity Pressure Visibility Wind Dir Wind Speed Gust Speed Precip Events Conditions
12:15 AM 36.1 °F 33.5 °F 22.1 °F 57% 30.26 in 10.0 mi NNE 3.5 mph - N/A   Clear
12:35 AM 35.6 °F - 21.7 °F 57% 30.26 in 10.0 mi Calm Calm - N/A   Clear
12:55 AM 33.3 °F 27.1 °F 20.8 °F 60% 30.26 in 10.0 mi North 6.9 mph - N/A   Clear
1:15 AM 32.0 °F 26.4 °F 20.3 °F 62% 30.26 in 10.0 mi North 5.8 mph - N/A   Clear
1:35 AM 32.0 °F 27.5 °F 20.3 °F 62% 30.26 in 10.0 mi North 4.6 mph - N/A   Clear
1:55 AM 31.8 °F 26.2 °F 19.4 °F 60% 30.27 in 10.0 mi North 5.8 mph - N/A   Clear
2:15 AM 30.7 °F 26.0 °F 19.8 °F 64% 30.27 in 10.0 mi NNE 4.6 mph - N/A   Clear
2:35 AM 30.4 °F 26.9 °F 18.7 °F 62% 30.27 in 10.0 mi NNE 3.5 mph - N/A   Clear
2:55 AM 29.3 °F 23.2 °F 19.2 °F 66% 30.28 in 10.0 mi NNE 5.8 mph - N/A   Clear
3:15 AM 29.3 °F 24.3 °F 19.0 °F 66% 30.28 in 10.0 mi NNE 4.6 mph - N/A   Clear
3:35 AM 28.9 °F 21.9 °F 19.4 °F 68% 30.28 in 10.0 mi North 6.9 mph - N/A   Clear
3:55 AM 28.8 °F 22.6 °F 19.0 °F 67% 30.28 in 10.0 mi NNE 5.8 mph - N/A   Clear
4:15 AM 28.0 °F 20.8 °F 18.7 °F 68% 30.29 in 10.0 mi North 6.9 mph - N/A   Clear
4:35 AM 27.5 °F 19.3 °F 18.5 °F 69% 30.28 in 10.0 mi North 8.1 mph - N/A   Clear
4:55 AM 26.6 °F 20.0 °F 16.5 °F 66% 30.29 in 10.0 mi NNW 5.8 mph - N/A   Clear
5:15 AM 26.1 °F 19.4 °F 17.6 °F 70% 30.29 in 10.0 mi NNW 5.8 mph - N/A   Clear
5:35 AM 26.1 °F 17.6 °F 18.1 °F 72% 30.29 in 10.0 mi NNW 8.1 mph - N/A   Clear
5:55 AM 26.2 °F 18.6 °F 18.1 °F 71% 30.29 in 10.0 mi North 6.9 mph - N/A   Clear
6:15 AM 26.6 °F 22.6 °F 17.4 °F 68% 30.31 in 10.0 mi NNW 3.5 mph - N/A   Clear
6:35 AM 25.2 °F - 18.3 °F 75% 30.31 in 10.0 mi Calm Calm - N/A   Clear
6:55 AM 28.9 °F - 19.4 °F 68% 30.31 in 10.0 mi Calm Calm - N/A   Clear
7:15 AM 27.1 °F - 19.0 °F 72% 30.33 in 10.0 mi Calm Calm - N/A   Clear
7:35 AM 27.1 °F - 19.6 °F 73% 30.33 in 10.0 mi Calm Calm - N/A   Clear
7:55 AM 27.3 °F - 19.4 °F 72% 30.33 in 10.0 mi Calm Calm - N/A   Clear
8:15 AM 25.5 °F - 18.1 °F 74% 30.32 in 10.0 mi Calm Calm - N/A   Clear
8:35 AM 27.3 °F - 20.1 °F 74% 30.33 in 10.0 mi Calm Calm - N/A   Clear
8:55 AM 30.6 °F - 20.5 °F 66% 30.33 in 10.0 mi Calm Calm - N/A   Clear
9:15 AM 33.4 °F - 21.4 °F 61% 30.34 in 10.0 mi Calm Calm - N/A   Clear
9:35 AM 38.1 °F - 21.0 °F 50% 30.35 in 10.0 mi Calm Calm - N/A   Clear
9:55 AM 42.4 °F - 19.2 °F 39% 30.35 in 10.0 mi Calm Calm - N/A   Clear
10:15 AM 44.8 °F 41.6 °F 18.1 °F 34% 30.33 in 10.0 mi SE 5.8 mph - N/A   Clear
10:55 AM 50.5 °F - 14.7 °F 24% 30.32 in 10.0 mi SE 10.4 mph - N/A   Clear
11:15 AM 52.2 °F - 13.5 °F 21% 30.31 in 10.0 mi SSE 12.7 mph - N/A   Clear
11:35 AM 52.7 °F - 10.4 °F 18% 30.31 in 10.0 mi SSE 11.5 mph 17.3 mph N/A   Clear
11:55 AM 53.6 °F - 10.2 °F 18% 30.31 in 10.0 mi South 13.8 mph 17.3 mph N/A   Clear
12:15 PM 54.5 °F - 10.4 °F 17% 30.29 in 10.0 mi SSE 11.5 mph 17.3 mph N/A   Clear
12:35 PM 55.2 °F - 11.8 °F 18% 30.28 in 10.0 mi SSW 15.0 mph 21.9 mph N/A   Clear
12:55 PM 55.8 °F - 14.9 °F 20% 30.27 in 10.0 mi South 15.0 mph 21.9 mph N/A   Clear
1:15 PM 57.2 °F - 17.8 °F 21% 30.26 in 10.0 mi South 12.7 mph 23.0 mph N/A   Clear
1:35 PM 57.2 °F - 19.4 °F 23% 30.24 in 10.0 mi SSW 20.7 mph 25.3 mph N/A   Clear
1:55 PM 57.9 °F - 20.3 °F 23% 30.22 in 10.0 mi SSW 13.8 mph 26.5 mph N/A   Clear
2:15 PM 57.7 °F - 22.6 °F 26% 30.20 in 10.0 mi South 16.1 mph 25.3 mph N/A   Clear
2:35 PM 59.2 °F - 24.3 °F 26% 30.18 in 10.0 mi South 20.7 mph 25.3 mph N/A   Clear
2:55 PM 60.1 °F - 23.9 °F 25% 30.16 in 10.0 mi South 20.7 mph 29.9 mph N/A   Clear
3:15 PM 59.9 °F - 22.5 °F 24% 30.14 in 10.0 mi SSW 13.8 mph 31.1 mph N/A   Clear
3:35 PM 61.3 °F - 22.8 °F 23% 30.12 in 10.0 mi South 16.1 mph 26.5 mph N/A   Clear
3:55 PM 61.7 °F - 23.2 °F 23% 30.10 in 10.0 mi SSW 18.4 mph 27.6 mph N/A   Clear
4:15 PM 61.7 °F - 23.2 °F 23% 30.08 in 10.0 mi SSW 23.0 mph 32.2 mph N/A   Clear
4:35 PM 61.2 °F - 23.2 °F 23% 30.08 in 10.0 mi SSW 19.6 mph 29.9 mph N/A   Clear
4:55 PM 61.2 °F - 22.8 °F 23% 30.07 in 10.0 mi SSW 23.0 mph 32.2 mph N/A   Clear
5:15 PM 60.1 °F - 22.6 °F 24% 30.05 in 10.0 mi SSW 24.2 mph 32.2 mph N/A   Clear
5:35 PM 60.1 °F - 22.3 °F 23% 30.03 in 10.0 mi SSW 21.9 mph 29.9 mph N/A   Clear
5:55 PM 60.3 °F - 22.1 °F 23% 30.02 in 10.0 mi SSW 21.9 mph 29.9 mph N/A   Clear
6:15 PM 60.3 °F - 22.8 °F 24% 30.00 in 10.0 mi SSW 18.4 mph 28.8 mph N/A   Clear
6:35 PM 60.3 °F - 22.8 °F 24% 30.00 in 10.0 mi SSW 20.7 mph 29.9 mph N/A   Clear
6:55 PM 59.9 °F - 22.6 °F 24% 29.99 in 10.0 mi SSW 21.9 mph 33.4 mph N/A   Clear
7:15 PM 59.2 °F - 22.3 °F 24% 29.99 in 10.0 mi SSW 18.4 mph 27.6 mph N/A   Scattered Clouds
7:35 PM 58.3 °F - 22.3 °F 25% 29.98 in 10.0 mi SSW 18.4 mph 27.6 mph N/A   Scattered Clouds
7:55 PM 57.6 °F - 22.1 °F 25% 29.97 in 10.0 mi SSW 18.4 mph 23.0 mph N/A   Clear
8:15 PM 56.5 °F - 22.6 °F 27% 29.97 in 10.0 mi SSW 13.8 mph - N/A   Clear
8:35 PM 56.1 °F - 23.0 °F 28% 29.96 in 10.0 mi SSW 16.1 mph - N/A   Clear
8:55 PM 55.8 °F - 23.4 °F 29% 29.95 in 10.0 mi SSW 15.0 mph - N/A   Clear
9:15 PM 55.6 °F - 23.7 °F 29% 29.95 in 10.0 mi SSW 17.3 mph 27.6 mph N/A   Clear
9:35 PM 55.4 °F - 23.9 °F 30% 29.94 in 10.0 mi SSW 17.3 mph - N/A   Clear
9:55 PM 55.2 °F - 24.3 °F 30% 29.94 in 10.0 mi SSW 16.1 mph - N/A   Clear
10:15 PM 54.5 °F - 24.6 °F 31% 29.93 in 10.0 mi SSW 15.0 mph - N/A   Clear
10:35 PM 54.5 °F - 24.8 °F 32% 29.93 in 10.0 mi SSW 15.0 mph 24.2 mph N/A   Clear
10:55 PM 54.5 °F - 25.2 °F 32% 29.91 in 10.0 mi SSW 15.0 mph 24.2 mph N/A   Clear
11:15 PM 54.0 °F - 25.5 °F 33% 29.91 in 10.0 mi SSW 13.8 mph 18.4 mph N/A   Clear
11:35 PM 54.7 °F - 25.7 °F 33% 29.90 in 10.0 mi SSW 19.6 mph 27.6 mph N/A   Clear
11:55 PM 54.9 °F - 25.7 °F 32% 29.89 in 10.0 mi SSW 16.1 mph 24.2 mph N/A   Clear